Content
SEND FEEDBACK

Daily
Averages
Monthly
Summary
United States of America

CHICAGO, ILLINOIS


Home > North America > United States > Illinois
Elevation: 674 feet     Latitude: 41 59N     Longitude: 087 54W

WEATHER
 
SELECT A DAY
Number of Records: 195,010;   Date Range: 7/8/95 - 8/30/14
 
SHARE

PRINT THIS DATA

[ ← Previous Day ]
WEATHER ALMANAC - MAY 21, 2013
[ Next Day → ]
[ °C ]   °F
Weather ElementAverageHighLow
Temperature73 °F82 °F (4:52 pm)64.9 °F (3:52 am)
Dewpoint61.1 °F64.9 °F (12:52 am)57 °F (8:52 pm)
Humidity67.7 %93 % (12:52 am)45 % (4:52 pm)
Barometer29.69 in29.75 in (12:52 am)29.66 in (5:52 pm)
Wind Speed9.6 mph19.6 mph (3:52 pm)
Wind Gust25.3 mph (2:52 pm)
Weather ElementAverage
Visibility10 mi
Wind DirectionSSE (166.4 °)

Weather ElementTotal
Precipitation0.15 in
Cooling Degree Days8.5 (Base 65)
Growing Degree Days23.5 (Base 50)
Averaged from 28 records on May 21, 2013
WEATHER CONDITIONS BREAKOUT
WIND DIRECTION BREAKOUT
WEATHER BY HOUR - MAY 21, 2013
[ °C ]   °F
Local TimeTemperatureDewpointHumidityBarometerVisibilityWind DirectionWind SpeedGust SpeedPrecipitationEventsConditions
12:52 AM66.9 °F64.9 °F93 %29.75 in9.0 miSouth (190°)4.6 mph0.06 inRainLight Rain
1:52 AM66.9 °F63.0 °F87 %29.69 in10.0 miSSE (150°)10.4 mph0.04 inRainLight Rain
2:52 AM66.0 °F62.1 °F87 %29.67 in10.0 miSSW (200°)4.6 mph0.04 inRainLight Rain
3:52 AM64.9 °F62.1 °F90 %29.68 in10.0 miSSW (200°)9.2 mph0.00 inClear
4:52 AM64.9 °F61.0 °F87 %29.69 in10.0 miSouth (190°)10.4 mphClear
5:52 AM64.9 °F60.1 °F84 %29.70 in10.0 miSSW (200°)10.4 mphClear
6:52 AM64.9 °F60.1 °F84 %29.70 in10.0 miSSW (200°)9.2 mphClear
7:52 AM68.0 °F60.1 °F76 %29.70 in10.0 miSSW (200°)9.2 mph0.01 inClear
8:52 AM72.0 °F62.1 °F71 %29.71 in10.0 miSSW (210°)9.2 mphClear
9:52 AM73.0 °F63.0 °F71 %29.70 in10.0 miSouth (180°)15.0 mph20.7 mphScattered Clouds
10:16 AM73.4 °F62.6 °F69 %29.71 in10.0 miSSW (200°)13.8 mph20.7 mphMostly Cloudy
10:52 AM73.9 °F62.1 °F66 %29.71 in10.0 miSSW (200°)12.7 mph20.7 mphOvercast
11:50 AM75.2 °F62.6 °F65 %29.72 in10.0 miSouth (190°)16.1 mph21.9 mphScattered Clouds
11:52 AM75.9 °F63.0 °F64 %29.71 in10.0 miSSW (210°)13.8 mph21.9 mphScattered Clouds
12:52 PM78.1 °F62.1 °F58 %29.68 in10.0 miSSW (200°)15.0 mph24.2 mphPartly Cloudy
1:52 PM78.1 °F61.0 °F56 %29.69 in10.0 miSSW (200°)16.1 mph23.0 mphMostly Cloudy
2:52 PM80.1 °F60.1 °F50 %29.68 in10.0 miSW (220°)16.1 mph25.3 mphScattered Clouds
3:52 PM81.0 °F59.0 °F47 %29.68 in10.0 miSSW (200°)19.6 mph25.3 mphMostly Cloudy
4:52 PM82.0 °F59.0 °F45 %29.68 in10.0 miSW (220°)13.8 mph20.7 mphPartly Cloudy
5:52 PM80.1 °F59.0 °F48 %29.66 in10.0 miSSW (210°)8.1 mph20.7 mphScattered Clouds
6:52 PM79.0 °F59.0 °F50 %29.67 in10.0 miSSW (210°)10.4 mph20.7 mphClear
7:52 PM79.0 °F60.1 °F52 %29.68 in10.0 miSSW (210°)8.1 mphMostly Cloudy
8:52 PM75.9 °F57.0 °F52 %29.68 in10.0 miCalmClear
9:52 PM73.9 °F57.9 °F57 %29.69 in10.0 miCalmPartly Cloudy
10:17 PM71.6 °F60.8 °F69 %29.70 in10.0 miCalmThunderstormScattered Clouds
10:32 PM71.6 °F60.8 °F69 %29.70 in10.0 miSE (130°)5.8 mphPartly Cloudy
10:52 PM72.0 °F61.0 °F68 %29.68 in10.0 miCalmClear
11:52 PM71.1 °F64.9 °F81 %29.68 in10.0 miSE (140°)5.8 mphMostly Cloudy
Hourly data recorded from KPWK, located miles away from Chicago, Illinois







STORIES FROM OUR PARTNERS